Location: Mount Tamalpais State Park
(37.9108°N, 122.6128°W)
Time: 14:12:14
(UTC-08:00)

Cosmos 1814 Rocket - Visible Passes

Search period start: 18 January 2017 00:00
Search period end: 28 January 2017 00:00
Orbit: 744 x 788 km, 74.1° (Epoch: 18 January)

Date Brightness Start Highest point End Pass type
(mag) Time Alt. Az. Time Alt. Az. Time Alt. Az.
18 Jan 6.5 18:38:18 10° WSW 18:42:07 20° WNW 18:45:57 10° NNW visible
19 Jan 5.8 17:59:33 10° SW 18:04:19 32° WNW 18:09:07 10° N visible
21 Jan 6.7 18:29:35 10° W 18:31:48 12° NW 18:34:01 10° NNW visible
22 Jan 6.4 17:49:54 10° WSW 17:53:53 21° WNW 17:57:53 10° NNW visible
